NOAA 16 DEB, 42385

Orbit data source: Space-Track

NOAA 16 DEB, 42385 is space debris in SSO originally from a launch on Thu, 21 Sep 2000 UTC launched from the Air Force Western Test Range (AFWTR). Debris objects in space refer to the collection of defunct objects orbiting the Earth. Examples of debris include non-operational satellites, rocket bodies, and fragments generated from explosions, collisions, or faulty payload assembly.

Loading next visibility...
Identifier
42385, 2000-055SD
Orbit
SSO
Country
Flag of USUS
Related business
Manufacturer
Unknown
Mission
Spacecraft
Bus & Motor
Unknown
Mass
Unknown
Launch date (UTC)
2000-09-21 (25 years ago)
Launch vehicle
Unknown
Launch site
Air Force Western Test Range (AFWTR)
Object type
Payload
Rocket body
Debris
Shape & HBR
Unknown shape, 0.1 m
Radar Cross Section
Small (<0.1 m²)

Expand to show TLE details & history
Last TLE update: 20 hours ago

TLE from 20 hours ago
0 NOAA 16 DEB
1 42385U 00055SD  25286.65758830  .00007017  00000-0  25871-2 0  9997
2 42385  98.6616   1.0128 0008659 203.8338 156.2446 14.32798940492298
Epoch: 2025-10-13T15:46Z
TLE epoch observation values (Epoch: 2025-10-13T15:46:55.629Z)
Latitude
0.00002°
Longitude
101.82379°
Altitude
791.001 km
Speed
7.455 km/s
True Right ascension
00h 04m 03s
True Declination
0° 00' 00"
Sunlit
Object was in full shadow at epoch
Visualization orbit readout
Latitude
Unknown
Longitude
Unknown
Altitude
Unknown
Speed
Unknown
Apparent Right ascension
Unknown
Apparent Declination
Unknown
Sunlit
N/A
Visualization observer readout
Local Sidereal Time
06:22:32
Azimuth
Unknown
Elevation
Unknown
Doppler factor
Unknown
Orbital elements
Apogee altitude
785.727 km
Perigee altitude
773.332 km
Semi-major axis
7,157.667 km
Eccentricity
0.00087
Inclination
98.6616°
RAAN
1.0128°
Arg. of periapsis
203.8338°
True anomaly
156.28453°
Mean anomaly
156.2446°
Eccentric anomaly
156.26457°
Mean motion
3.58415 °/min
Orbital period
100.44 mins
BSTAR
0.0025871
Loading maneuver chart data...
Computing Atmospheric mass density...
Loading historical data...
Loading historical data...
Loading historical data...
Loading historical data...
Loading historical data...
Loading historical data...
Loading historical data...

Documentation

Showing up to 5 results
|